| time (UTC) | temp F | wind direction | speed MPH | gust MPH | rain 1hr in | rain 24hr in | rain mn in | humidity % | barometer mb |
| 20260506210119 | 80 | 220 | 5.0 | 13.0 | 0.00 | 0.00 | 0.00 | 73 | 1014.3 |
| 20260506204635 | 81 | 163 | 6.0 | 11.0 | 0.00 | 0.00 | 0.00 | 75 | 1014.5 |
| 20260506203131 | 81 | 161 | 6.0 | 11.0 | 0.00 | 0.00 | 0.00 | 74 | 1014.5 |
| 20260506201632 | 80 | 184 | 8.0 | 14.0 | 0.00 | 0.00 | 0.00 | 75 | 1014.9 |
| 20260506200151 | 81 | 172 | 8.0 | 13.0 | 0.00 | 0.00 | 0.00 | 73 | 1015.1 |
| 20260506194625 | 83 | 159 | 2.0 | 10.0 | 0.00 | 0.00 | 0.00 | 71 | 1015.5 |
| 20260506193144 | 82 | 163 | 5.0 | 11.0 | 0.00 | 0.00 | 0.00 | 70 | 1015.6 |
| 20260506191637 | 83 | 231 | 3.0 | 14.0 | 0.00 | 0.00 | 0.00 | 70 | 1015.9 |
| 20260506190130 | 83 | 244 | 9.0 | 14.0 | 0.00 | 0.00 | 0.00 | 68 | 1016.0 |
| 20260506184624 | 82 | 215 | 7.0 | 10.0 | 0.00 | 0.00 | 0.00 | 70 | 1016.0 |
| 20260506183121 | 83 | 257 | 6.0 | 12.0 | 0.00 | 0.00 | 0.00 | 72 | 1016.1 |
| 20260506181618 | 81 | 245 | 7.0 | 10.0 | 0.00 | 0.00 | 0.00 | 71 | 1016.1 |
| 20260506180118 | 82 | 218 | 6.0 | 12.0 | 0.00 | 0.00 | 0.00 | 70 | 1016.4 |
| 20260506174655 | 83 | 269 | 7.0 | 11.0 | 0.00 | 0.00 | 0.00 | 70 | 1016.5 |
| 20260506173129 | 81 | 197 | 7.0 | 11.0 | 0.00 | 0.00 | 0.00 | 70 | 1016.5 |
| 20260506171624 | 84 | 178 | 2.0 | 10.0 | 0.00 | 0.00 | 0.00 | 70 | 1016.6 |
| 20260506170139 | 81 | 241 | 5.0 | 11.0 | 0.00 | 0.00 | 0.00 | 74 | 1016.7 |
| 20260506164637 | 80 | 199 | 5.0 | 9.0 | 0.00 | 0.00 | 0.00 | 78 | 1016.6 |
| 20260506163128 | 81 | 223 | 5.0 | 8.0 | 0.00 | 0.00 | 0.00 | 78 | 1016.5 |
| 20260506161627 | 79 | 201 | 4.0 | 7.0 | 0.00 | 0.00 | 0.00 | 82 | 1016.4 |
| 20260506160144 | 79 | 191 | 5.0 | 9.0 | 0.00 | 0.00 | 0.00 | 80 | 1016.2 |
| 20260506154633 | 79 | 219 | 5.0 | 9.0 | 0.00 | 0.00 | 0.00 | 81 | 1016.2 |
| 20260506153131 | 79 | 197 | 5.0 | 10.0 | 0.00 | 0.00 | 0.00 | 81 | 1016.0 |
| 20260506151627 | 78 | 259 | 5.0 | 8.0 | 0.00 | 0.00 | 0.00 | 82 | 1016.0 |
| 20260506150126 | 77 | 214 | 5.0 | 12.0 | 0.00 | 0.00 | 0.00 | 83 | 1015.8 |
| 20260506144621 | 78 | 220 | 5.0 | 12.0 | 0.00 | 0.00 | 0.00 | 82 | 1015.5 |
| 20260506143137 | 77 | 243 | 5.0 | 11.0 | 0.00 | 0.00 | 0.00 | 84 | 1015.5 |
| 20260506141653 | 77 | 163 | 5.0 | 11.0 | 0.00 | 0.00 | 0.00 | 85 | 1015.5 |
| 20260506140127 | 77 | 181 | 8.0 | 13.0 | 0.00 | 0.00 | 0.00 | 83 | 1015.3 |
| 20260506134643 | 77 | 175 | 4.0 | 9.0 | 0.00 | 0.00 | 0.00 | 85 | 1015.1 |
| 20260506133132 | 75 | 234 | 5.0 | 10.0 | 0.00 | 0.00 | 0.00 | 88 | 1015.0 |
| 20260506131630 | 75 | 200 | 6.0 | 10.0 | 0.00 | 0.00 | 0.00 | 90 | 1014.9 |
| 20260506130122 | 74 | 163 | 6.0 | 9.0 | 0.00 | 0.00 | 0.00 | 91 | 1014.6 |
| 20260506124615 | 74 | 176 | 4.0 | 11.0 | 0.00 | 0.00 | 0.00 | 92 | 1014.4 |
| 20260506123132 | 73 | 173 | 5.0 | 10.0 | 0.00 | 0.00 | 0.00 | 93 | 1014.4 |
| 20260506121626 | 73 | 169 | 4.0 | 7.0 | 0.00 | 0.00 | 0.00 | 94 | 1013.9 |
| 20260506120123 | 73 | 196 | 5.0 | 10.0 | 0.00 | 0.00 | 0.00 | 95 | 1013.5 |
| 20260506114637 | 72 | 211 | 3.0 | 6.0 | 0.00 | 0.00 | 0.00 | 96 | 1013.4 |
| 20260506113134 | 72 | 215 | 3.0 | 6.0 | 0.00 | 0.00 | 0.00 | 96 | 1013.3 |
| 20260506111631 | 72 | 184 | 3.0 | 8.0 | 0.00 | 0.00 | 0.00 | 96 | 1012.9 |
| 20260506110129 | 71 | 151 | 2.0 | 7.0 | 0.00 | 0.00 | 0.00 | 96 | 1012.9 |
| 20260506104621 | 71 | 186 | 3.0 | 7.0 | 0.00 | 0.00 | 0.00 | 96 | 1012.9 |
| 20260506103123 | 72 | 189 | 3.0 | 6.0 | 0.00 | 0.00 | 0.00 | 96 | 1012.8 |
| 20260506101635 | 72 | 192 | 3.0 | 6.0 | 0.00 | 0.00 | 0.00 | 96 | 1012.8 |
| 20260506100127 | 72 | 188 | 3.0 | 6.0 | 0.00 | 0.00 | 0.00 | 95 | 1012.7 |
| 20260506094620 | 72 | 193 | 2.0 | 6.0 | 0.00 | 0.00 | 0.00 | 95 | 1012.8 |
| 20260506093135 | 72 | 174 | 3.0 | 6.0 | 0.00 | 0.00 | 0.00 | 95 | 1012.8 |
| 20260506091631 | 72 | 218 | 2.0 | 7.0 | 0.00 | 0.00 | 0.00 | 95 | 1012.8 |
| 20260506090143 | 72 | 164 | 3.0 | 6.0 | 0.00 | 0.00 | 0.00 | 95 | 1012.9 |
| 20260506084625 | 72 | 185 | 2.0 | 5.0 | 0.00 | 0.00 | 0.00 | 95 | 1012.9 |
| 20260506083119 | 72 | 202 | 3.0 | 6.0 | 0.00 | 0.00 | 0.00 | 95 | 1013.1 |
| 20260506081656 | 72 | 188 | 3.0 | 7.0 | 0.00 | 0.00 | 0.00 | 95 | 1013.3 |
| 20260506080132 | 72 | 223 | 3.0 | 7.0 | 0.00 | 0.00 | 0.00 | 95 | 1013.2 |
| 20260506073122 | 72 | 194 | 3.0 | 5.0 | 0.00 | 0.00 | 0.00 | 95 | 1013.3 |
| 20260506071634 | 72 | 194 | 2.0 | 5.0 | 0.00 | 0.00 | 0.00 | 94 | 1013.3 |
| 20260506070130 | 72 | 185 | 3.0 | 7.0 | 0.00 | 0.00 | 0.00 | 95 | 1013.4 |
| 20260506061629 | 72 | 183 | 3.0 | 6.0 | 0.00 | 0.00 | 0.00 | 95 | 1013.5 |
| 20260506060126 | 72 | 209 | 4.0 | 6.0 | 0.00 | 0.00 | 0.00 | 95 | 1013.8 |
| 20260506050130 | 72 | 192 | 3.0 | 6.0 | 0.00 | 0.00 | 0.00 | 95 | 1014.0 |
| 20260506044641 | 72 | 187 | 3.0 | 7.0 | 0.00 | 0.00 | 0.00 | 95 | 1014.2 |
| 20260506043135 | 72 | 167 | 2.0 | 6.0 | 0.00 | 0.00 | 0.00 | 95 | 1014.5 |
| 20260506041652 | 72 | 179 | 3.0 | 5.0 | 0.00 | 0.00 | 0.00 | 95 | 1014.7 |
| 20260506040125 | 72 | 178 | 3.0 | 6.0 | 0.00 | 0.00 | 0.00 | 94 | 1014.6 |
| 20260506034623 | 72 | 191 | 1.0 | 7.0 | 0.00 | 0.00 | 0.00 | 94 | 1014.8 |
| 20260506033155 | 73 | 188 | 3.0 | 8.0 | 0.00 | 0.00 | 0.00 | 94 | 1014.7 |
| 20260506031633 | 73 | 169 | 4.0 | 7.0 | 0.00 | 0.00 | 0.00 | 93 | 1014.6 |
| 20260506030127 | 73 | 184 | 4.0 | 6.0 | 0.00 | 0.00 | 0.00 | 93 | 1014.6 |
| 20260506024627 | 73 | 186 | 4.0 | 6.0 | 0.00 | 0.00 | 0.00 | 92 | 1014.6 |
| 20260506023120 | 73 | 204 | 3.0 | 7.0 | 0.00 | 0.00 | 0.00 | 92 | 1014.5 |
| 20260506021621 | 73 | 186 | 5.0 | 9.0 | 0.00 | 0.00 | 0.00 | 91 | 1014.3 |
| 20260506020133 | 73 | 181 | 3.0 | 6.0 | 0.00 | 0.00 | 0.00 | 91 | 1014.5 |
| 20260506014626 | 73 | 180 | 3.0 | 6.0 | 0.00 | 0.00 | 0.00 | 90 | 1014.5 |
| 20260506013119 | 73 | 181 | 4.0 | 7.0 | 0.00 | 0.00 | 0.00 | 90 | 1014.2 |
| 20260506011636 | 73 | 194 | 2.0 | 7.0 | 0.00 | 0.00 | 0.00 | 89 | 1014.1 |
| 20260506010132 | 73 | 182 | 3.0 | 6.0 | 0.00 | 0.00 | 0.00 | 89 | 1014.0 |
| 20260506004626 | 73 | 178 | 4.0 | 11.0 | 0.00 | 0.00 | 0.00 | 89 | 1013.9 |
| 20260506003122 | 73 | 190 | 5.0 | 10.0 | 0.00 | 0.00 | 0.00 | 88 | 1013.9 |
| 20260506001623 | 73 | 171 | 5.0 | 11.0 | 0.00 | 0.00 | 0.00 | 87 | 1013.7 |
| 20260506000120 | 74 | 221 | 5.0 | 9.0 | 0.00 | 0.00 | 0.00 | 86 | 1013.5 |
| 20260505234637 | 74 | 163 | 5.0 | 9.0 | 0.00 | 0.00 | 0.00 | 83 | 1013.9 |
| 20260505233155 | 75 | 166 | 6.0 | 10.0 | 0.00 | 0.00 | 0.00 | 79 | 1013.9 |
| 20260505231633 | 76 | 196 | 4.0 | 10.0 | 0.00 | 0.00 | 0.00 | 74 | 1013.9 |
| 20260505230128 | 76 | 155 | 3.0 | 12.0 | 0.00 | 0.00 | 0.00 | 77 | 1013.7 |
| 20260505224624 | 76 | 150 | 5.0 | 13.0 | 0.00 | 0.00 | 0.00 | 73 | 1013.9 |
| 20260505223137 | 76 | 160 | 6.0 | 11.0 | 0.00 | 0.00 | 0.00 | 78 | 1013.9 |
| 20260505221627 | 76 | 169 | 6.0 | 14.0 | 0.00 | 0.00 | 0.00 | 80 | 1013.9 |
| 20260505220124 | 76 | 221 | 6.0 | 14.0 | 0.00 | 0.00 | 0.00 | 78 | 1013.9 |
| 20260505214624 | 77 | 173 | 8.0 | 13.0 | 0.00 | 0.00 | 0.00 | 75 | 1013.8 |
| 20260505213118 | 77 | 169 | 7.0 | 13.0 | 0.00 | 0.00 | 0.00 | 73 | 1013.9 |
| 20260505211631 | 77 | 171 | 8.0 | 15.0 | 0.00 | 0.00 | 0.00 | 65 | 1014.0 |